Home > Weather > Kaarst > Past weeks

Flag for Germany Past Weather in Kaarst, North Rhine-Westphalia, Germany — Yesterday and Last 2 Weeks

Now
61 °F

Clear.


Feels Like: 61 °F
Forecast: 54 / 72 °F
Wind: 5 mph from East

Location: Monchengladbach Airport

Current Time: May 26, 2016 at 10:57:53 AM

Latest Report: May 26, 2016 at 10:20 AM


Visibility: 4 mi

Pressure: 30.01 "Hg

Humidity: 77%

Dew Point: 54 °F

Location of KaarstLocation

Past Weather in Kaarst — Graph

°F

Kaarst Temperature Yesterday

Maximum temperature yesterday: 63 °F (at 3:50 PM)
Minimum temperature yesterday: 52 °F (at 7:50 AM)
Average temperature yesterday: 58 °F

High & Low Weather Summary for the Past Weeks

 TemperatureHumidityPressure
High77 °F (May 11, 2:50 PM)100% (May 22, 7:20 PM)30.12 "Hg (May 22, 7:20 PM)
Low45 °F (May 15, 7:50 AM)25% (May 13, 5:50 PM)29.47 "Hg (May 12, 1:50 PM)
Average61 °F63%29.88 "Hg
* Reported May 11 9:20 AM — May 26 9:20 AM, Kaarst, Weather by CustomWeather, © 2016

Note: Actual official high and low records may vary slightly from our data, if they occured in-between our weather recording intervals... More about our weather records

Advertising

Kaarst Weather History for the Previous 24 Hours

Scroll right to see more
 ConditionsComfort  
Time TempWeatherWind HumidityBarometerVisibility
9:20 AM
Thu, May 26
59 °FClear.6 mph77%30.04 "Hg4 mi
8:50 AM57 °FFog.6 mph82%30.04 "Hg3 mi
8:20 AM55 °FFog.3 mph88%30.01 "Hg3 mi
7:50 AM54 °FFog.2 mph94%30.01 "Hg3 mi
8:20 PM
Wed, May 25
61 °FClear.3 mph68%29.98 "Hg10 mi
7:50 PM61 °FPassing clouds.2 mph68%29.98 "Hg5 mi
7:20 PM61 °FPassing clouds.3 mph68%29.98 "Hg5 mi
6:50 PM61 °FPassing clouds.3 mph68%29.98 "Hg5 mi
6:20 PM61 °FPassing clouds.3 mph68%29.98 "HgN/A
5:50 PM61 °FPassing clouds.5 mph63%29.98 "HgN/A
5:20 PM61 °FPassing clouds.3 mph63%29.98 "HgN/A
4:50 PM61 °FPassing clouds.2 mph63%29.98 "HgN/A
4:20 PM61 °FPassing clouds.5 mph59%29.98 "HgN/A
3:50 PM63 °FPassing clouds.3 mph59%29.98 "HgN/A
3:20 PM61 °FPassing clouds.3 mph55%29.98 "HgN/A
2:50 PM61 °FPassing clouds.3 mph55%29.98 "HgN/A
2:20 PM61 °FPassing clouds.3 mph59%29.98 "HgN/A
1:50 PM61 °FPassing clouds.3 mph59%29.98 "HgN/A
1:20 PM59 °FScattered clouds.3 mph63%29.98 "HgN/A
12:50 PM59 °FScattered clouds.3 mph68%29.98 "HgN/A
12:20 PM57 °FScattered clouds.5 mph67%29.98 "HgN/A
11:50 AM55 °FScattered clouds.5 mph72%29.98 "HgN/A
11:20 AM55 °FScattered clouds.6 mph72%29.98 "HgN/A
10:50 AM55 °FBroken clouds.5 mph72%29.98 "HgN/A
10:20 AM55 °FPartly sunny.6 mph72%30.01 "HgN/A
Weather by CustomWeather, © 2016

See weather overviewHow to use our weather pages